Regional Weather Roundup
Issued by NWS

Home | Current Version | Previous Version | Text Only | Print | Product List | Glossary On
Versions: 1 2 3 4 5 6 7 8 9 10 11 12 13 14 15 16 17 18 19 20 21 22 23 24 25 26 27 28 29 30 31 32 33 34 35 36 37 38 39 40 41 42 43 44 45 46 47 48 49 50
000
ASUS43 KOAX 281110
RWRNE

WEATHER ROUNDUP FOR NEBRASKA
NATIONAL WEATHER SERVICE OMAHA NE
600 AM CDT WED JUN 28 2017

NOTES: SATELLITE DATA IS BEING USED TO AUGMENT CLOUD COVER ABOVE
       12000 FEET.
       "FAIR" INDICATES FEW OR NO CLOUDS BELOW 12,000 FEET WITH NO
       SIGNIFICANT WEATHER AND/OR OBSTRUCTIONS TO VISIBILITY.

  * THESE STATIONS DO NOT REPORT WEATHER SUCH AS RAIN...SNOW OR FOG.

NEZ001>004-019>022-054>056-281200-
NEBRASKA PANHANDLE

CITY           SKY/WX    TMP DP  RH WIND       PRES   REMARKS
SCOTTSBLUFF    CLEAR     53  47  79 NW8       29.87R
ALLIANCE       CLEAR     52  49  89 W10       29.84R
CHADRON        CLEAR     57  49  74 SW13      29.81R
GORDON         FAIR      53  50  88 W3        29.80R
KIMBALL        CLEAR     55  44  66 NW13      29.93R
SIDNEY         CLEAR     52  46  80 NW10      29.89R
$$

NEZ057>060-069>072-079>082-281200-
SOUTHWEST NEBRASKA

CITY           SKY/WX    TMP DP  RH WIND       PRES   REMARKS
NORTH PLATTE   CLEAR     56  55  97 NW5       29.75R
IMPERIAL       CLEAR     57  53  86 NW6       29.79R
LEXINGTON      CLEAR     62  59  92 CALM      29.74R
MCCOOK         CLEAR     62  60  93 W8        29.76R
OGALLALA       CLEAR     56  54  93 SW3       29.80R
$$

NEZ005>010-023>029-035>040-094-281200-
NORTH CENTRAL NEBRASKA

CITY           SKY/WX    TMP DP  RH WIND       PRES   REMARKS
VALENTINE      CLEAR     59  53  80 SW9       29.72R
AINSWORTH      MOCLDY    62  56  81 W12       29.71S
BROKEN BOW     CLEAR     59  57  93 CALM      29.72R
O`NEILL        CLEAR     59  58  96 SW6       29.68F
ORD            CLEAR     62  58  86 CALM      29.69R
THEDFORD       CLEAR     60  55  82 NW7       29.75F
$$

NEZ041-046>049-061>064-073>077-083>087-281200-
SOUTH CENTRAL NEBRASKA

CITY           SKY/WX    TMP DP  RH WIND       PRES   REMARKS
GRAND ISLAND   CLOUDY    64  64 100 NE6       29.72R
AURORA         CLOUDY    68  66  95 S5        29.71S
HASTINGS       CLOUDY    70  62  76 S6        29.72R
HEBRON         CLOUDY    74  66  76 S8        29.70F
HOLDREGE       CLOUDY    66  58  76 W7        29.72R
KEARNEY *      PTCLDY    64  61  88 CALM      29.73R
YORK           CLOUDY    68  66  94 S8        29.71S
$$

NEZ011>018-030>034-042>045-281200-
NORTHEAST NEBRASKA

CITY           SKY/WX    TMP DP  RH WIND       PRES   REMARKS
NORFOLK        PTCLDY    65  61  87 S10       29.68R
ALBION         CLOUDY    66  62  87 CALM      29.70R
BLAIR          CLOUDY    65  62  90 S12       29.72R
FREMONT        CLOUDY    67  61  83 SE14G22   29.71R
TEKAMAH        CLOUDY    66  62  87 S14       29.70R
WAYNE          CLOUDY    65  65  98 S12       29.66R
$$

NEZ050>053-065>068-078-088>093-281200-
SOUTHEAST NEBRASKA

CITY           SKY/WX    TMP DP  RH WIND       PRES   REMARKS
LINCOLN        CLOUDY    71  67  87 S15       29.72R
OMAHA EPPLEY   CLOUDY    65  61  87 S20       29.73F
BEATRICE       MOCLDY    71  68  90 SE8       29.74F
FALLS CITY     LGT RAIN  67  66  97 E8        29.82F
NEBRASKA CITY  CLOUDY    63  63 100 SE21G26   29.76F
PLATTSMOUTH    CLOUDY    64  63  96 SE9       29.73F
$$

NEZ044-045-051>053-067-281200-
OMAHA AREA

CITY           SKY/WX    TMP DP  RH WIND       PRES   REMARKS
OMAHA EPPLEY   CLOUDY    65  61  87 S20       29.73F
BLAIR          CLOUDY    65  62  90 S12       29.72R
FREMONT        CLOUDY    67  61  83 SE14G22   29.71R
MILLARD        CLOUDY    65  64  96 SE8       29.73S
OFFUTT AFB     PTCLDY    65  62  90 S15       29.73F
PLATTSMOUTH    CLOUDY    64  63  96 SE9       29.73F
WAHOO          FAIR      64  62  92 SE17      29.71S
$$



USA.gov is the U.S. government's official web portal to all federal, state and local government web resources and services.